Regional Weather Roundup
Issued by NWS

Home | Current Version | Previous Version | Text Only | Print | Product List | Glossary Off
Versions: 1 2 3 4 5 6 7 8 9 10 11 12 13 14 15 16 17 18 19 20 21 22 23 24 25 26 27 28 29 30 31 32 33 34 35 36 37 38 39 40 41 42 43 44 45 46 47 48 49 50

000
ASUS45 KSLC 301910
RWRUT

UTAH REGIONAL WEATHER ROUNDUP
NATIONAL WEATHER SERVICE SALT LAKE CITY UT
100 PM MDT WED JUL 30 2014

UTZ001>011-023>025-302000-

NORTHERN UTAH

CITY           SKY/WX    TMP DP  RH WIND       PRES   REMARKS
HILL AFB       PTSUNNY   68  60  75 SE8       30.24F
LOGAN          PTSUNNY   74  56  53 VRB7      30.24F
OGDEN          PTSUNNY   75  59  57 S13       30.22F
PROVO AIRPORT  PTSUNNY   75  59  57 W8        30.23F
SALT LAKE CITY PTSUNNY   71  60  68 N9        30.21F
VERNAL         CLOUDY    69  57  65 W5        30.25S
WENDOVER       SUNNY     81  54  39 E13       30.21S
HEBER CITY     CLOUDY    64  57  77 N12       30.28F
WEST JORDAN    CLOUDY    70  66  88 NW10      30.24F

$$

UTZ012>022-026-027-302000-

SOUTHERN UTAH

CITY           SKY/WX    TMP DP  RH WIND       PRES   REMARKS
BRYCE CANYON   SUNNY     73  50  44 NW15      30.38F
CEDAR CITY     SUNNY     78  56  46 N8        30.25F
MILFORD        SUNNY     81  54  39 N6        30.22F
MOAB/CYNLANDS  SUNNY     78  57  48 SW5       30.16F
PRICE          CLOUDY    77  52  41 S10       30.24F
ST GEORGE      CLOUDY    93  54  26 W7        30.04F HX  91
KANAB            N/A     86  50  28 S6        30.20F

$$

REGIONAL REPORTS     COLORADO/ARIZONA

CITY           SKY/WX    TMP DP  RH WIND       PRES   REMARKS
CRAIG, CO      CLOUDY    65  54  67 W7        30.29F
GRAND JUNCTION MOSUNNY   79  56  45 VRB6      30.18F
RIFLE          PTSUNNY   76  53  44 N5        30.22F
MONTROSE       PTSUNNY   77  55  46 NW9       30.25F
CORTEZ         MOSUNNY   83  49  30 VRB3      30.22F
PAGE, AZ       SUNNY     90  49  24 VRB3      30.12F
GRAND CANYON   SUNNY     82  45  27 VRB7G17   30.31F
KINGMAN        SUNNY     96  48  19 VRB3      30.07F HX  92
FLAGSTAFF      PTSUNNY   77  44  30 W10G20    30.35S

$$

REGIONAL REPORTS    NEVADA/IDAHO/WYOMING

CITY           SKY/WX    TMP DP  RH WIND       PRES   REMARKS
LAS VEGAS, NV  MOSUNNY   98  52  21 S9        29.95F HX  95
ELY            SUNNY     76  46  34 N12       30.33S
ELKO           SUNNY     84  42  22 E10       30.25F
POCATELLO, ID  MOSUNNY   83  53  35 NE9       30.23F
BURLEY         SUNNY     79  54  41 VRB3      30.21S
EVANSTON, WY   LGT RAIN  59  55  87 NE14      30.39S
ROCK SPRINGS   LGT RAIN  62  51  67 E17       30.37S

$$


USA.gov is the U.S. government's official web portal to all federal, state and local government web resources and services.